Location: Chilton Park
(37.7711°N, 100.0276°W)
Time: 21:46:27
(UTC+00:00)

Cosmos 1898 Rocket - Pass Details

Date: 12 July 2022
Orbit: 754 x 782 km, 74.0° (Epoch: 07 August)

Event Time Altitude Azimuth Distance (km) Brightness Sun altitude
Rises 07:15:57 0° 334° (NNW) 3,213 7.5 -29.9°
Reaches altitude 10° 07:18:24 10° 329° (NNW) 2,285 6.5 -29.8°
Enters shadow 07:21:43 34° 301° (WNW) 1,220 4.6 -29.7°
